AirNav   Everest Fuels
 
 1206 users online  

F22 Perry Municipal Airport
Perry, Oklahoma, USA

GOING TO PERRY?


FAA INFORMATION EFFECTIVE 18 JUNE 2020

Location

FAA Identifier: F22
Lat/Long: 36-23-08.2000N 097-16-38.0000W
36-23.136667N 097-16.633333W
36.3856111,-97.2772222
(estimated)
Elevation: 1002.5 ft. / 305.6 m (surveyed)
Variation: 06E (1995)
From city: 5 miles N of PERRY, OK
Time zone: UTC -5 (UTC -6 during Standard Time)
Zip code: 73077

Airport Operations

Airport use: Open to the public
Activation date: 08/1943
Control tower: no
ARTCC: KANSAS CITY CENTER
FSS: MC ALESTER FLIGHT SERVICE STATION
NOTAMs facility: MLC (NOTAM-D service available)
Attendance: 0800 - 1700
AIRPORT UNATTENDED CHRISTMAS DAY.
Wind indicator: lighted
Segmented circle: yes
Lights: ACTVT MIRL RY 17/35 AND REIL RWY 17 & RWY 35 - CTAF.
Beacon: white-green (lighted land airport)
Operates sunset to sunrise.

Airport Communications

CTAF/UNICOM: 122.8
WX ASOS at SWO (16 nm SE): 135.725 (405-743-8150)
  • APCH/DEP SVC PRVDD BY KANSAS CITY ARTCC ON FREQS 127.8/319.1 (PONCA CITY RCAG).

Nearby radio navigation aids

VOR radial/distance  VOR name  Freq  Var
SWOr309/13.5STILLWATER VOR/DME108.4007E
PERr189/22.4PIONEER VORTAC113.2006E
ODGr080/24.7WOODRING VOR/DME109.0008E
ENDr080/31.1VANCE VORTAC115.4005E

 
NDB name  Hdg/Dist  Freq  Var  ID
BLAKI309/12.825505ESW ... .--

Airport Services

Fuel available: 100LL JET-A
Parking: tiedowns
Airframe service: MINOR
Powerplant service: MINOR

Runway Information

Runway 17/35

Dimensions: 5103 x 75 ft. / 1555 x 23 m
Surface: asphalt, in good condition
Weight bearing capacity: 
Single wheel: 75.0
Double wheel: 130.0
Runway edge lights: medium intensity
RUNWAY 17  RUNWAY 35
Latitude: 36-23.557095N36-22.716153N
Longitude: 097-16.635762W097-16.630862W
Elevation: 974.0 ft.1002.4 ft.
Traffic pattern: leftleft
Runway heading: 174 magnetic, 180 true354 magnetic, 360 true
Markings: nonprecision, in good conditionnonprecision, in good condition
Visual slope indicator: 2-light PAPI on left (3.00 degrees glide path)2-light PAPI on left (3.00 degrees glide path)
Runway end identifier lights: yesyes
Touchdown point: yes, no lightsyes, no lights
Obstructions: none20 ft. road, 670 ft. from runway, 23:1 slope to clear

Airport Ownership and Management from official FAA records

Ownership: Publicly-owned
Owner: CITY OF PERRY
CITY HALL, PO BOX 798
PERRY, OK 73077
Phone 580-336-4241
Manager: JOHN ANDERSON
15500 CR 110
PERRY, OK 73077
Phone 580-336-4001

Airport Operational Statistics

Aircraft based on the field: 24
Single engine airplanes: 21
Multi engine airplanes: 1
Helicopters: 2
    
Aircraft operations: avg 96/day *
43% military
34% local general aviation
23% transient general aviation
* for 12-month period ending 30 January 2019

Additional Remarks

ULTRALIGHT ACTIVITY ON & INVOF ARPT.
HEAVY MILITARY JET TFC DALGT.
FOR CD CTC KANSAS CITY ARTCC AT 913-254-8508.

Instrument Procedures

NOTE: All procedures below are presented as PDF files. If you need a reader for these files, you should download the free Adobe Reader.

NOT FOR NAVIGATION. Please procure official charts for flight.
FAA instrument procedures published for use from 18 June 2020 at 0901Z to 16 July 2020 at 0900Z.

 
IAPs - Instrument Approach Procedures
RNAV (GPS) RWY 17   download (249KB)
RNAV (GPS) RWY 35   download (252KB)
VOR RWY 17   download (210KB)
NOTE: Special Take-Off Minimums/Departure Procedures apply   download (131KB)

Other nearby airports with instrument procedures:

KSWO - Stillwater Regional Airport (16 nm SE)
KBKN - Blackwell-Tonkawa Municipal Airport (22 nm N)
KPNC - Ponca City Regional Airport (22 nm N)
KWDG - Enid Woodring Regional Airport (25 nm W)
KEND - Vance Air Force Base (31 nm W)
 
Loc | Ops | Rwys | IFR | FBO | Links
Com | Nav | Svcs | Stats | Notes
Area around F22 (Perry Municipal Airport)
 
Road maps at: MapQuest Bing Google
 
Aerial photo
WARNING: Photo may not be current or correct
Aerial photo of F22 (Perry Municipal Airport)
Do you have a better or more recent aerial photo of Perry Municipal Airport that you would like to share? If so, please send us your photo.

 
Sectional chart

 
Airport diagram
CAUTION: Diagram may not be current
Diagram of F22 (Perry Municipal Airport)
 
Airport distance calculator
Flying to Perry Municipal Airport? Find the distance to fly.

From to F22

Sunrise and sunset
Times for 08-Jul-2020
 Local
(UTC-5)
 Zulu
(UTC)
Morning civil twilight05:5010:50
Sunrise06:2011:20
Sunset20:4801:48
Evening civil twilight21:1802:18

Current date and time
Zulu (UTC)  08-Jul-2020 21:42:45
Local (UTC-5)  08-Jul-2020 16:42:45
 
METAR
KSWO 
16nm SE 
082053Z 16012KT 10SM SCT049 35/22 A2983 RMK AO2 SLP086 T03500217 58019
KBKN 
22nm N 
082115Z AUTO 14013G21KT 10SM SCT060 SCT075 36/21 A2981 RMK AO2
KPNC 
23nm N 
082053Z AUTO 14014KT 10SM SCT065 35/20 A2982 RMK AO2 SLP082 T03500200 56019
KWDG 
24nm W 
082045Z 17014G22KT 10SM SCT060 SCT070 38/19 A2980
KEND 
31nm W 
082056Z AUTO 16014KT 10SM FEW065 35/20 A2981 RMK AO2 SLP080 T03490196 57021
TAF
KPNC 
23nm N 
081722Z 0818/0918 16009G17KT P6SM FEW250 FM090100 16009KT P6SM SCT100 PROB30 0909/0912 4SM TSRA BKN100CB FM091200 09009G13KT P6SM SCT100
NOTAMs
Click for the latest NOTAMs
NOTAMs are issued by the DoD/FAA and will open in a separate window not controlled by AirNav.

 

 
 

FBO, Fuel Providers, and Aircraft Ground Support

  
 Business Name 
 
 Contact 
 
 Services / Description 
 
Fuel Prices
 
Comments
  
 Perry Municipal Airport
580-336-4001 Airport management, Aviation fuel, Aircraft parking (ramp or tiedown), Hangars, Hangar leasing / sales, Passenger terminal and lounge, Aircraft maintenance, Catering, ...
More info and photos of Perry Municipal Airport
Phillips 66
100LL Jet A
PS $4.19 $2.59 
 Updated 02-Jul-2020
 
   2 read write
PS=Pump service
Update Fuel Prices
 

Would you like to see your business listed on this page?

 If your business provides an interesting product or service to pilots, flight crews, aircraft, or users of the Perry Municipal Airport, you should consider listing it here.  To start the listing process, click on the button below
 
Add a business
 

Other Pages about Perry Municipal Airport

Mid Air Collision Avoidance for KEND (Vance Air Force Base)
 
Update a link
 
Copyright © AirNav, LLC. All rights reserved. Privacy Policy  Contact